Date String (YYYY-MM-DD hh:mm:ss) UTC,Instrument flags,Ambient pressure (hPa),Sample flow (lpm),Bypass flow (lpm),Sample temperature (°C),Ambient temperature (°C),ASC tube jacket temperature (°C),LED temperature (°C),Box temperature (°C),Sample RH (%),Mass concentration (μg/m³),Mass concentration (μg/m³)
DateTimeUTC,F1_M11,P_M11,Q1_M11,Q2_M11,T1_M11,T2_M11,T3_M11,T4_M11,T5_M11,U1_M11,X2_M11,X0_M11
2021-08-17 18:00:00,,0824.4,5.01,0.00,28.9,26.5,00.0,37.9,30.5,26.3,0023.07,0047.42
2021-08-17 18:01:00,,0824.4,4.99,0.00,28.8,25.8,00.0,37.9,30.3,25.5,0023.00,0048.70
2021-08-17 18:02:00,,0824.4,5.00,0.00,28.8,26.1,00.0,37.9,30.4,24.3,0022.98,0048.82
2021-08-17 18:03:00,,0824.4,5.01,0.00,28.8,26.5,00.0,37.9,30.5,24.2,0022.90,0048.07
2021-08-17 18:04:00,,0824.4,5.01,0.00,28.8,26.9,00.0,37.9,30.6,25.0,0022.90,0046.97
2021-08-17 18:05:00,,0824.3,4.99,0.00,28.9,27.3,00.0,37.9,30.7,24.8,0023.01,0048.54
2021-08-17 18:06:00,,0824.3,5.01,0.00,28.9,27.6,00.0,37.9,30.8,24.2,0023.12,0048.92
2021-08-17 18:07:00,,0824.3,4.99,0.00,28.9,27.0,00.0,37.9,30.6,24.5,0023.23,0050.24
2021-08-17 18:08:00,,0824.3,5.01,0.00,28.8,25.8,00.0,37.9,30.2,24.9,0023.22,0049.89
2021-08-17 18:09:00,,0824.2,5.00,0.00,28.7,25.8,00.0,37.9,30.2,25.2,0023.28,0048.46
2021-08-17 18:10:00,,0824.2,5.00,0.00,28.7,26.2,00.0,37.9,30.4,24.8,0023.38,0048.27
2021-08-17 18:11:00,,0824.4,4.99,0.00,28.7,26.6,00.0,37.8,30.5,25.2,0023.43,0048.11
2021-08-17 18:12:00,,0824.3,5.02,0.00,28.8,27.0,00.0,37.8,30.6,25.6,0023.51,0048.05
2021-08-17 18:13:00,,0824.2,4.99,0.00,28.8,27.4,00.0,37.8,30.7,25.1,0023.51,0048.34
2021-08-17 18:14:00,,0824.3,5.01,0.00,28.9,27.7,00.0,37.9,30.8,24.4,0023.54,0048.17
2021-08-17 18:15:00,,0824.4,5.00,0.00,29.0,27.7,00.0,37.9,30.8,24.5,0023.50,0045.96
2021-08-17 18:16:00,,0824.2,5.01,0.00,28.9,26.5,00.0,37.9,30.4,22.5,0023.27,0043.86
2021-08-17 18:17:00,,0824.3,5.00,0.00,28.8,25.7,00.0,37.9,30.2,21.9,0023.03,0042.30
2021-08-17 18:18:00,,0824.3,5.00,0.00,28.7,26.1,00.0,37.9,30.3,22.0,0022.89,0040.16
2021-08-17 18:19:00,,0824.2,4.99,0.00,28.7,26.5,00.0,37.8,30.4,22.1,0022.76,0039.56
2021-08-17 18:20:00,,0824.2,5.01,0.00,28.8,26.9,00.0,37.8,30.5,22.9,0022.53,0039.45
2021-08-17 18:21:00,,0824.3,5.00,0.00,28.8,27.3,00.0,37.8,30.7,22.8,0022.36,0038.81
2021-08-17 18:22:00,,0824.3,4.99,0.00,28.9,27.6,00.0,37.9,30.8,23.4,0022.29,0038.99
2021-08-17 18:23:00,,0824.2,5.01,0.00,28.9,27.7,00.0,37.9,30.8,23.7,0022.18,0038.12
2021-08-17 18:24:00,,0824.2,4.99,0.00,28.9,26.4,00.0,37.9,30.4,23.4,0022.07,0036.81
2021-08-17 18:25:00,,0824.1,5.01,0.00,28.8,25.6,00.0,37.9,30.2,23.5,0021.94,0037.00
2021-08-17 18:26:00,,0824.1,5.01,0.00,28.7,26.0,00.0,37.9,30.3,23.1,0021.83,0037.97
2021-08-17 18:27:00,,0824.1,4.99,0.00,28.7,26.5,00.0,37.8,30.5,23.3,0021.84,0040.47
2021-08-17 18:28:00,,0824.1,4.99,0.00,28.8,26.9,00.0,37.8,30.6,22.7,0021.85,0041.94
2021-08-17 18:29:00,,0824.1,5.02,0.00,28.8,27.3,00.0,37.8,30.7,22.3,0021.80,0042.41
2021-08-17 18:30:00,,0824.1,5.00,0.00,28.9,27.6,00.0,37.8,30.8,22.2,0021.70,0041.42
2021-08-17 18:31:00,,0824.1,4.99,0.00,28.9,27.7,00.0,37.9,30.8,22.8,0021.65,0041.80
2021-08-17 18:32:00,,0824.1,5.00,0.00,28.9,26.4,00.0,37.9,30.4,21.6,0021.56,0041.92
2021-08-17 18:33:00,,0824.1,5.01,0.00,28.8,25.7,00.0,37.8,30.2,21.8,0021.38,0040.59
2021-08-17 18:34:00,,0824.1,4.99,0.00,28.7,26.1,00.0,37.8,30.3,22.2,0021.21,0040.91
2021-08-17 18:35:00,,0824.1,5.00,0.00,28.7,26.5,00.0,37.8,30.4,21.6,0021.05,0041.71
2021-08-17 18:36:00,,0824.1,4.99,0.00,28.7,26.9,00.0,37.8,30.5,21.9,0020.93,0040.98
2021-08-17 18:37:00,,0824.1,5.01,0.00,28.8,27.2,00.0,37.8,30.6,21.2,0020.76,0040.37
2021-08-17 18:38:00,,0824.1,4.98,0.00,28.9,27.6,00.0,37.8,30.7,21.4,0020.62,0038.36
2021-08-17 18:39:00,,0824.0,5.01,0.00,28.9,27.0,00.0,37.8,30.5,21.2,0020.50,0037.05
2021-08-17 18:40:00,,0824.1,4.99,0.00,28.7,25.7,00.0,37.8,30.2,20.7,0020.35,0036.69
2021-08-17 18:41:00,,0824.1,5.00,0.00,28.7,25.8,00.0,37.8,30.2,20.9,0020.26,0037.24
2021-08-17 18:42:00,,0824.1,5.00,0.00,28.7,26.2,00.0,37.8,30.3,21.3,0020.19,0037.24
2021-08-17 18:43:00,,0824.0,5.00,0.00,28.7,26.6,00.0,37.8,30.4,21.3,0020.09,0036.91
2021-08-17 18:44:00,,0824.0,5.00,0.00,28.7,27.1,00.0,37.8,30.6,21.3,0020.08,0037.08
2021-08-17 18:45:00,,0824.0,5.00,0.00,28.8,27.4,00.0,37.8,30.7,22.3,0020.13,0035.98
2021-08-17 18:46:00,,0824.0,5.01,0.00,28.9,27.7,00.0,37.8,30.8,22.7,0020.22,0035.18
2021-08-17 18:47:00,,0824.0,4.99,0.00,28.9,27.0,00.0,37.8,30.6,22.4,0020.31,0035.57
2021-08-17 18:48:00,,0823.9,5.01,0.00,28.8,25.7,00.0,37.8,30.2,23.0,0020.35,0034.70
2021-08-17 18:49:00,,0823.9,5.00,0.00,28.7,25.8,00.0,37.8,30.2,22.3,0020.39,0034.11
2021-08-17 18:50:00,,0823.9,5.01,0.00,28.7,26.3,00.0,37.8,30.4,22.2,0020.43,0034.12
2021-08-17 18:51:00,,0823.9,5.00,0.00,28.7,26.7,00.0,37.7,30.4,22.2,0020.52,0034.02
2021-08-17 18:52:00,,0823.8,4.99,0.00,28.7,27.0,00.0,37.8,30.5,22.3,0020.63,0033.79
2021-08-17 18:53:00,,0823.8,5.00,0.00,28.8,27.4,00.0,37.8,30.7,22.2,0020.80,0033.12
2021-08-17 18:54:00,,0823.8,5.00,0.00,28.9,27.7,00.0,37.8,30.8,21.6,0020.86,0032.99
2021-08-17 18:55:00,,0823.8,4.98,0.00,28.9,27.1,00.0,37.8,30.6,20.4,0020.84,0033.57
2021-08-17 18:56:00,,0823.8,5.01,0.00,28.8,25.7,00.0,37.8,30.2,20.8,0020.77,0034.34
2021-08-17 18:57:00,,0823.7,4.99,0.00,28.7,25.8,00.0,37.8,30.2,21.5,0020.70,0034.32
2021-08-17 18:58:00,,0823.8,5.02,0.00,28.7,26.3,00.0,37.8,30.3,21.3,0020.65,0033.68
2021-08-17 18:59:00,,0823.7,4.99,0.00,28.7,26.7,00.0,37.7,30.4,20.9,0020.64,0033.63
